#timestamp,LO_Frequency,Hit,StdDev 
1560697215.6,286047002.8,Y
1560697235.4,286047000.9,P
1560697255.3,286046998.3,P
1560697275.1,286047000.7,N
1560697295.9,286047000.0,N
1560697315.7,286047001.1,N
1560697335.5,286047000.7,N
1560697355.4,286046998.2,N
1560697375.2,286046998.4,N
1560697395.0,286046998.1,N
1560697396.0,286046998.1,N
1560697415.8,286046998.1,N
1560697435.6,286046998.7,N
1560697455.5,286046998.5,N
1560697475.3,286046998.1,N
1560697495.1,286046998.8,N
1560697515.9,286046999.6,N
1560697535.7,286046997.6,N
1560697555.5,286046998.0,N
1560697575.4,286046997.6,N
1560697595.2,286046997.4,N
1560697615.1,286046998.0,N
1560697616.0,286046998.0,N
1560697635.8,286046998.0,N
1560697655.6,286046995.3,Y
1560697675.5,286046997.1,P
1560697695.3,286046997.1,P
1560697715.2,286046997.3,P
1560697735.9,286046997.3,Y
1560697755.7,286046998.1,P
1560697775.6,286046999.1,P
1560697795.4,286046995.1,P
1560697815.3,286046995.0,Y
1560697835.1,286047000.6,P
1560697836.0,286047000.6,N
1560697855.8,286046998.1,N
1560697875.7,286047000.2,N
1560697895.5,286047000.9,N
1560697915.3,286046998.2,N
1560697935.2,286047000.9,N
1560697955.0,286046998.5,N
1560697955.9,286046998.5,N
1560697975.8,286046998.9,N
1560698025.6,286046999.1,E
1560698035.6,286046999.3,N
1560698055.4,286046998.7,P
1560698075.2,286047001.2,P
1560698095.1,286047000.4,N
1560698096.0,286047000.4,N
1560698115.8,286047000.4,N
1560698135.6,286047000.8,N
1560698155.5,286046999.0,N
1560698175.3,286046998.3,N
1560698195.2,286046998.9,N
1560698215.9,286046998.9,N
1560698235.7,286046999.0,N
1560698255.6,286046999.2,N
1560698275.4,286046997.8,N
1560698295.2,286046995.5,Y
1560698315.1,286046997.1,P
1560698316.0,286046997.1,N
1560698335.8,286046998.5,N
1560698355.7,286047001.1,N
1560698375.5,286046998.6,N
1560698395.3,286046999.4,N
1560698415.2,286046999.0,N
1560698435.0,286046999.2,N
1560698435.9,286046999.2,N
1560698455.8,286046999.5,N
1560698475.6,286046998.9,N
1560698495.4,286046999.4,N
1560698515.3,286046998.4,N
1560698535.1,286047000.8,N
1560698555.8,286047000.8,N
1560698575.7,286046999.7,N
1560698595.5,286047001.0,N
1560698615.4,286047000.4,N
1560698635.2,286047001.2,N
1560698655.0,286047000.9,N
1560698655.9,286047000.9,N
1560698675.8,286047000.3,N
1560698695.6,286047000.2,N
1560698715.5,286046999.8,N
1560698735.4,286046999.9,N
1560698755.2,286047001.7,N
1560698775.0,286047002.3,N
1560698775.9,286047002.3,N
1560698795.8,286047000.2,N
1560698815.6,286047000.2,N
1560698835.4,286047002.7,N
1560698855.3,286047002.5,N
1560698875.1,286047000.3,N
1560698895.9,286047000.2,N
1560698915.7,286047000.1,N
1560698935.5,286046999.9,N
1560698955.4,286047000.5,N
1560698975.2,286047000.6,N
1560698995.0,286047000.5,N
1560698996.0,286047000.5,N
1560699015.8,286047001.1,N
1560699035.6,286047000.3,N
1560699055.5,286047002.4,N
1560699075.3,286047002.6,Y
1560699095.1,286046999.9,P
1560699115.9,286047000.5,N
1560699135.7,286047000.3,N
1560699155.6,286047002.4,Y
1560699175.4,286047000.4,P
1560699195.2,286047000.4,P
1560699215.1,286047001.1,P
1560699216.0,286047001.1,Y
1560699235.8,286047000.4,P
1560699255.7,286047000.4,P
1560699275.5,286047000.3,P
1560699295.3,286047000.0,N
1560699315.2,286046999.7,N
1560699335.0,286047002.5,Y
1560699335.9,286047002.5,P
1560699355.7,286047002.8,N
1560699375.6,286046999.8,N
1560699395.4,286046999.9,N
1560699415.3,286047002.7,N
1560699435.1,286047002.1,N
1560699436.0,286047002.1,N
1560699455.8,286047001.9,N
1560699475.7,286047002.2,N
1560699495.5,286047002.2,N
1560699515.3,286047002.3,N
1560699535.2,286047002.3,N
1560699555.0,286047002.1,N
1560699555.9,286047002.1,N
1560699575.8,286047002.5,N
1560699595.6,286047002.0,N
1560699615.5,286047002.5,N
1560699635.3,286047000.1,N
1560699655.1,286047000.2,N
1560699675.9,286047002.3,N
1560699695.7,286047002.6,N
1560699715.6,286046999.7,N
1560699735.4,286047002.3,N
1560699755.2,286047002.6,N
1560699775.1,286046999.8,N
1560699776.0,286046999.8,N
1560699795.8,286047002.2,N
1560699815.7,286047002.3,N
1560699835.5,286047002.7,N
1560699855.3,286047002.5,N
1560699875.2,286047002.3,N
1560699895.0,286047002.8,N
1560699895.9,286047002.8,N
1560699915.8,286047008.1,Y
1560699935.6,286047006.4,P
1560699955.4,286047005.2,N
1560699975.3,286047005.4,N
1560699995.1,286047005.3,Y
1560700015.9,286046999.3,P
1560700035.7,286046999.3,N
1560700055.5,286046998.8,N
1560700075.4,286046998.9,N
1560700095.2,286046996.1,N
1560700115.0,286046993.4,N
1560700116.0,286046993.4,N
1560700135.8,286046996.0,N
1560700155.6,286046994.6,N
1560700175.5,286046991.9,N
1560700195.3,286046994.8,N
1560700215.1,286046994.8,N
1560700235.9,286046991.7,N
1560700255.7,286046994.3,N
1560700275.6,286046994.3,N
1560700295.4,286046993.5,N
1560700315.2,286046993.8,N
1560700335.1,286046994.0,N
1560700336.0,286046994.0,N
1560700355.8,286046993.9,N
1560700375.7,286046994.1,N
1560700395.5,286046994.6,N
1560700415.3,286046993.5,N
1560700435.2,286046995.9,N
1560700455.0,286046993.7,N
1560700455.9,286046993.7,N
1560700475.8,286046994.1,N
1560700495.6,286046994.4,N
1560700515.4,286046994.2,N
1560700535.3,286046996.4,N
1560700555.1,286046994.1,Y
1560700575.9,286046998.4,P
1560700595.7,286046998.6,N
1560700615.5,286046998.5,N
1560700635.4,286046998.5,N
1560700655.2,286047000.6,N
1560700675.0,286047000.4,N
1560700675.9,286047000.4,N
1560700695.8,286047000.3,N
1560700715.6,286047000.1,N
1560700735.5,286047000.0,N
1560700755.3,286046999.9,N
1560700775.1,286047000.2,N
1560700795.9,286047002.7,N
